Total_Precipitation_Accumulation
2.04 2.07 1.60 1.01 0.80 0.67 0.62 0.65 0.59 0.50 0.47 0.65 0.70 0.66 0.68 0.65 0.63 0.66 0.68 0.72 0.86 1.05 1.20 1.41 1.62 2.00 2.24 2.54 2.87 2.99 3.27 3.49 3.63 3.75 3.76 3.54 3.26 3.02 2.85 2.80 2.75 2.57 2.40 2.32
1.95 1.57 0.89 0.71 0.72 0.73 0.75 0.81 0.64 0.54 0.48 0.62 0.65 0.61 0.66 0.73 0.71 0.63 0.61 0.65 0.73 0.92 1.05 1.21 1.45 1.79 1.98 2.17 2.39 2.62 2.84 3.11 3.32 3.36 3.39 3.47 3.47 3.21 2.92 2.83 2.83 2.79 2.71 2.56
1.39 0.93 0.65 0.76 0.86 0.93 0.85 0.80 0.68 0.63 0.58 0.66 0.68 0.70 0.64 0.68 0.69 0.68 0.65 0.66 0.73 0.89 0.93 1.03 1.22 1.59 1.80 1.92 2.09 2.28 2.53 2.69 2.82 3.15 3.41 3.46 3.65 3.56 3.12 2.77 2.61 2.71 2.82 2.82
1.15 0.69 0.71 0.88 0.84 0.88 0.93 0.59 0.61 0.68 0.92 1.02 0.77 0.95 0.70 0.64 0.63 0.68 0.71 0.74 0.81 0.88 0.94 1.02 1.10 1.33 1.56 1.65 1.81 2.03 2.34 2.56 2.61 2.87 3.10 3.08 3.00 3.05 2.83 2.64 2.63 2.71 2.77 2.85
1.20 0.78 0.79 0.95 0.72 0.73 0.76 0.56 0.68 0.79 0.98 1.09 0.76 0.89 0.80 0.60 0.70 0.75 0.76 0.81 0.86 0.83 0.87 0.99 1.05 1.12 1.31 1.43 1.52 1.72 2.09 2.39 2.53 2.60 2.75 2.91 2.91 2.88 2.92 2.84 2.77 2.69 2.60 2.65
0.89 0.79 0.89 0.82 0.61 0.69 0.78 0.90 1.03 1.09 1.43 1.50 0.70 0.77 0.83 0.72 0.78 0.74 0.70 0.76 0.82 0.77 0.83 0.89 0.93 0.98 1.16 1.24 1.25 1.41 1.66 2.09 2.45 2.55 2.57 2.64 2.69 2.65 2.72 2.80 2.77 2.73 2.60 2.48
1.09 0.89 0.82 0.83 1.00 1.01 1.23 1.81 2.30 2.20 2.05 1.16 0.42 0.60 0.86 0.75 0.68 0.70 0.69 0.68 0.75 0.77 0.79 0.82 0.87 0.99 1.07 1.15 1.14 1.19 1.32 1.65 2.09 2.34 2.37 2.40 2.46 2.49 2.45 2.55 2.68 2.66 2.53 2.37
1.17 1.05 0.75 0.86 1.18 1.26 1.20 1.57 1.83 1.49 0.99 0.56 0.39 0.60 0.79 0.68 0.60 0.57 0.53 0.53 0.62 0.69 0.71 0.74 0.77 0.84 0.89 0.94 1.02 1.11 1.18 1.32 1.58 1.86 2.05 2.18 2.27 2.30 2.20 2.18 2.38 2.48 2.36 2.26
1.00 0.83 0.51 0.62 0.77 0.95 1.17 1.24 1.09 1.33 0.91 0.64 0.51 0.54 0.57 0.46 0.47 0.48 0.45 0.46 0.54 0.56 0.58 0.61 0.64 0.68 0.70 0.75 0.84 0.93 0.97 1.06 1.24 1.47 1.68 1.89 2.01 2.12 2.15 2.07 2.14 2.36 2.36 2.20
0.98 1.00 0.58 0.63 0.89 1.01 1.06 1.04 1.26 1.89 1.51 0.89 0.52 0.47 0.59 0.52 0.49 0.52 0.49 0.45 0.46 0.47 0.48 0.54 0.58 0.63 0.65 0.67 0.64 0.67 0.79 0.93 1.06 1.17 1.40 1.58 1.75 1.86 1.95 2.02 2.03 2.10 2.18 2.15
0.86 1.21 0.86 0.84 1.12 1.08 1.08 1.30 1.46 1.54 1.30 1.16 0.80 0.66 0.62 0.54 0.52 0.53 0.52 0.46 0.44 0.44 0.47 0.51 0.52 0.57 0.65 0.67 0.59 0.56 0.66 0.79 0.89 0.96 1.13 1.28 1.42 1.59 1.71 1.78 1.82 1.86 1.92 2.00
0.85 1.37 1.09 0.75 0.65 0.71 0.91 1.05 1.29 1.76 1.37 1.07 0.91 0.74 0.54 0.47 0.46 0.49 0.51 0.50 0.47 0.48 0.51 0.50 0.49 0.51 0.60 0.68 0.67 0.60 0.62 0.69 0.78 0.84 0.94 1.12 1.19 1.32 1.48 1.60 1.62 1.64 1.68 1.73
1.17 1.67 1.52 1.07 0.93 0.93 1.06 0.94 1.00 1.42 1.76 1.39 1.11 0.76 0.48 0.39 0.37 0.41 0.47 0.50 0.49 0.51 0.54 0.52 0.52 0.53 0.58 0.67 0.72 0.66 0.64 0.65 0.71 0.81 0.83 0.96 1.08 1.15 1.22 1.34 1.43 1.49 1.55 1.60
1.45 1.69 1.39 1.16 1.09 1.11 1.04 0.83 0.95 1.70 2.17 1.30 0.76 0.53 0.39 0.38 0.43 0.45 0.46 0.50 0.54 0.55 0.55 0.55 0.59 0.59 0.62 0.66 0.71 0.68 0.69 0.65 0.64 0.75 0.80 0.81 0.96 1.06 1.10 1.14 1.22 1.28 1.34 1.41
1.18 1.52 1.01 0.67 0.54 0.72 0.77 0.76 0.88 1.28 1.33 1.27 0.75 0.49 0.45 0.47 0.54 0.54 0.50 0.47 0.48 0.50 0.51 0.53 0.56 0.61 0.63 0.65 0.70 0.71 0.70 0.70 0.64 0.68 0.77 0.79 0.84 0.93 1.02 1.09 1.15 1.22 1.25 1.29
0.98 1.27 1.01 0.73 0.46 0.55 0.64 0.62 0.66 0.78 0.85 0.87 0.66 0.62 0.53 0.50 0.47 0.45 0.45 0.43 0.46 0.47 0.50 0.50 0.48 0.53 0.56 0.64 0.72 0.76 0.76 0.73 0.69 0.66 0.70 0.76 0.82 0.86 0.91 1.00 1.09 1.14 1.22 1.28
0.90 1.14 1.31 0.92 0.51 0.66 0.81 0.73 0.72 0.74 0.75 0.77 0.80 0.73 0.59 0.53 0.50 0.49 0.47 0.44 0.44 0.44 0.43 0.44 0.45 0.50 0.52 0.57 0.67 0.75 0.77 0.74 0.73 0.71 0.70 0.73 0.79 0.87 0.92 0.95 1.05 1.18 1.25 1.39
0.63 0.99 1.46 1.09 0.75 0.95 0.77 0.59 0.61 0.65 0.68 0.72 0.70 0.61 0.55 0.53 0.51 0.51 0.47 0.43 0.41 0.41 0.40 0.39 0.41 0.43 0.44 0.47 0.56 0.68 0.72 0.73 0.74 0.74 0.77 0.79 0.80 0.90 1.00 1.02 1.06 1.17 1.28 1.40
0.37 0.84 1.43 1.27 0.96 0.65 0.44 0.41 0.56 0.65 0.69 0.66 0.54 0.44 0.42 0.41 0.42 0.44 0.41 0.38 0.40 0.41 0.43 0.42 0.42 0.45 0.44 0.47 0.53 0.65 0.71 0.72 0.74 0.77 0.80 0.83 0.85 0.96 1.07 1.07 1.08 1.14 1.21 1.29
0.35 0.71 1.39 1.32 1.13 0.64 0.44 0.28 0.31 0.50 0.74 0.54 0.47 0.45 0.45 0.45 0.53 0.47 0.38 0.36 0.38 0.37 0.39 0.45 0.47 0.46 0.49 0.53 0.56 0.65 0.75 0.84 0.88 0.89 0.91 0.93 1.01 1.11 1.15 1.13 1.11 1.08 1.08 1.09
0.54 0.97 1.28 1.11 1.06 0.57 0.40 0.25 0.26 0.70 0.84 0.46 0.44 0.47 0.49 0.53 0.55 0.47 0.37 0.34 0.38 0.41 0.41 0.44 0.49 0.51 0.55 0.60 0.61 0.64 0.72 0.88 0.97 1.00 1.01 1.01 1.07 1.13 1.15 1.11 1.04 1.01 0.96 0.95
0.51 0.72 0.81 0.86 1.11 0.80 0.42 0.33 0.61 0.78 0.49 0.42 0.43 0.46 0.49 0.48 0.40 0.35 0.36 0.36 0.35 0.37 0.40 0.46 0.53 0.57 0.57 0.63 0.71 0.71 0.76 0.85 0.92 0.97 0.98 0.97 0.98 1.02 1.07 1.08 1.02 0.97 0.95 0.94
0.54 0.68 0.73 0.78 0.86 0.73 0.57 0.61 0.64 0.54 0.49 0.42 0.43 0.44 0.44 0.43 0.41 0.35 0.33 0.34 0.36 0.39 0.41 0.48 0.58 0.63 0.64 0.65 0.71 0.76 0.74 0.75 0.80 0.87 0.92 0.90 0.87 0.88 0.92 0.97 0.98 0.98 0.97 0.95
0.49 0.42 0.55 0.66 0.66 0.56 0.53 0.47 0.43 0.43 0.47 0.42 0.40 0.41 0.43 0.45 0.41 0.38 0.36 0.35 0.34 0.36 0.41 0.47 0.53 0.58 0.61 0.61 0.64 0.67 0.64 0.63 0.66 0.72 0.80 0.83 0.83 0.83 0.83 0.85 0.92 0.96 0.97 0.95
0.53 0.47 0.52 0.59 0.52 0.43 0.42 0.42 0.42 0.40 0.36 0.33 0.32 0.33 0.38 0.40 0.39 0.39 0.40 0.39 0.38 0.39 0.43 0.47 0.54 0.58 0.60 0.58 0.58 0.59 0.58 0.58 0.62 0.63 0.68 0.72 0.78 0.83 0.86 0.87 0.92 0.97 0.98 1.04
0.44 0.49 0.59 0.65 0.51 0.52 0.52 0.45 0.40 0.37 0.36 0.35 0.33 0.31 0.31 0.34 0.38 0.36 0.37 0.37 0.38 0.43 0.44 0.46 0.49 0.54 0.61 0.60 0.57 0.56 0.57 0.58 0.64 0.67 0.67 0.71 0.78 0.81 0.84 0.86 0.90 0.99 1.00 1.04